| time (UTC) | temp F | wind direction | speed MPH | gust MPH | rain 1hr in | rain 24hr in | rain mn in | humidity % | barometer mb |
| 20260504234550 | 48 | 355 | 3.0 | 15.0 | 0.00 | 0.00 | 0.00 | 41 | 1010.7 |
| 20260504234034 | 49 | 325 | 3.0 | 11.0 | 0.00 | 0.00 | 0.00 | 40 | 1010.8 |
| 20260504233635 | 51 | 360 | 4.0 | 14.0 | 0.00 | 0.00 | 0.00 | 39 | 1010.7 |
| 20260504233031 | 51 | 349 | 3.0 | 14.0 | 0.00 | 0.00 | 0.00 | 39 | 1010.9 |
| 20260504232529 | 51 | 11 | 6.0 | 15.0 | 0.00 | 0.00 | 0.00 | 39 | 1010.5 |
| 20260504232029 | 51 | 355 | 5.0 | 15.0 | 0.00 | 0.00 | 0.00 | 40 | 1010.5 |
| 20260504231539 | 50 | 299 | 6.0 | 19.0 | 0.00 | 0.00 | 0.00 | 40 | 1010.6 |
| 20260504231030 | 51 | 321 | 10.0 | 19.0 | 0.00 | 0.00 | 0.00 | 39 | 1010.6 |
| 20260504230528 | 52 | 293 | 6.0 | 14.0 | 0.00 | 0.00 | 0.00 | 39 | 1010.5 |
| 20260504230028 | 52 | 309 | 7.0 | 14.0 | 0.00 | 0.00 | 0.00 | 37 | 1010.4 |
| 20260504225528 | 53 | 5 | 6.0 | 12.0 | 0.00 | 0.00 | 0.00 | 39 | 1010.5 |
| 20260504225031 | 52 | 22 | 5.0 | 13.0 | 0.00 | 0.00 | 0.00 | 40 | 1010.4 |
| 20260504224529 | 53 | 304 | 6.0 | 14.0 | 0.00 | 0.00 | 0.00 | 38 | 1010.3 |
| 20260504224026 | 54 | 9 | 8.0 | 14.0 | 0.00 | 0.00 | 0.00 | 37 | 1010.2 |
| 20260504223626 | 53 | 35 | 7.0 | 15.0 | 0.00 | 0.00 | 0.00 | 38 | 1010.3 |
| 20260504223031 | 53 | 33 | 6.0 | 15.0 | 0.00 | 0.00 | 0.00 | 39 | 1010.3 |
| 20260504222530 | 52 | 349 | 6.0 | 13.0 | 0.00 | 0.00 | 0.00 | 40 | 1010.2 |
| 20260504222029 | 51 | 21 | 5.0 | 18.0 | 0.00 | 0.00 | 0.00 | 38 | 1010.2 |
| 20260504221529 | 52 | 11 | 7.0 | 18.0 | 0.00 | 0.00 | 0.00 | 38 | 1010.2 |
| 20260504221031 | 52 | 313 | 5.0 | 20.0 | 0.00 | 0.00 | 0.00 | 39 | 1010.2 |
| 20260504220529 | 52 | 296 | 10.0 | 20.0 | 0.00 | 0.00 | 0.00 | 37 | 1010.1 |
| 20260504220029 | 53 | 302 | 8.0 | 19.0 | 0.00 | 0.00 | 0.00 | 38 | 1010.1 |
| 20260504215529 | 52 | 293 | 7.0 | 19.0 | 0.00 | 0.00 | 0.00 | 38 | 1009.9 |
| 20260504215028 | 52 | 316 | 9.0 | 19.0 | 0.00 | 0.00 | 0.00 | 39 | 1010.1 |
| 20260504214535 | 52 | 330 | 9.0 | 16.0 | 0.00 | 0.00 | 0.00 | 38 | 1010.0 |
| 20260504214029 | 52 | 324 | 8.0 | 17.0 | 0.00 | 0.00 | 0.00 | 38 | 1010.1 |
| 20260504213629 | 53 | 312 | 9.0 | 21.0 | 0.00 | 0.00 | 0.00 | 38 | 1010.0 |
| 20260504213029 | 53 | 319 | 9.0 | 21.0 | 0.00 | 0.00 | 0.00 | 38 | 1010.1 |
| 20260504212528 | 52 | 20 | 7.0 | 23.0 | 0.00 | 0.00 | 0.00 | 38 | 1010.2 |
| 20260504212025 | 52 | 318 | 9.0 | 22.0 | 0.00 | 0.00 | 0.00 | 39 | 1010.1 |
| 20260504211525 | 52 | 298 | 8.0 | 19.0 | 0.00 | 0.00 | 0.00 | 38 | 1010.0 |
| 20260504211025 | 53 | 336 | 10.0 | 18.0 | 0.00 | 0.00 | 0.00 | 38 | 1010.1 |
| 20260504210525 | 52 | 40 | 5.0 | 17.0 | 0.00 | 0.00 | 0.00 | 39 | 1010.1 |
| 20260504210025 | 53 | 271 | 9.0 | 21.0 | 0.00 | 0.00 | 0.00 | 37 | 1010.1 |
| 20260504205529 | 53 | 345 | 11.0 | 21.0 | 0.00 | 0.00 | 0.00 | 38 | 1010.2 |
| 20260504205024 | 53 | 9 | 6.0 | 26.0 | 0.00 | 0.00 | 0.00 | 39 | 1010.0 |
| 20260504204551 | 52 | 305 | 11.0 | 26.0 | 0.00 | 0.00 | 0.00 | 39 | 1010.1 |
| 20260504204025 | 52 | 321 | 9.0 | 20.0 | 0.00 | 0.00 | 0.00 | 39 | 1010.1 |
| 20260504203624 | 53 | 323 | 9.0 | 25.0 | 0.00 | 0.00 | 0.00 | 39 | 1010.0 |
| 20260504203028 | 53 | 284 | 10.0 | 25.0 | 0.00 | 0.00 | 0.00 | 39 | 1010.0 |
| 20260504202523 | 53 | 326 | 11.0 | 20.0 | 0.00 | 0.00 | 0.00 | 39 | 1010.1 |
| 20260504202022 | 52 | 332 | 10.0 | 17.0 | 0.00 | 0.00 | 0.00 | 39 | 1010.0 |
| 20260504201522 | 53 | 334 | 9.0 | 16.0 | 0.00 | 0.00 | 0.00 | 37 | 1010.0 |
| 20260504201020 | 53 | 308 | 5.0 | 16.0 | 0.00 | 0.00 | 0.00 | 39 | 1010.0 |
| 20260504200521 | 52 | 304 | 7.0 | 19.0 | 0.00 | 0.00 | 0.00 | 40 | 1010.0 |
| 20260504200028 | 53 | 292 | 9.0 | 19.0 | 0.00 | 0.00 | 0.00 | 38 | 1010.1 |
| 20260504195519 | 52 | 302 | 8.0 | 19.0 | 0.00 | 0.00 | 0.00 | 41 | 1010.0 |
| 20260504195020 | 53 | 347 | 7.0 | 15.0 | 0.00 | 0.00 | 0.00 | 41 | 1010.1 |
| 20260504194521 | 52 | 319 | 6.0 | 20.0 | 0.00 | 0.00 | 0.00 | 42 | 1010.0 |
| 20260504194023 | 51 | 317 | 10.0 | 20.0 | 0.00 | 0.00 | 0.00 | 40 | 1010.1 |
| 20260504193620 | 52 | 341 | 8.0 | 17.0 | 0.00 | 0.00 | 0.00 | 41 | 1010.0 |
| 20260504193025 | 52 | 287 | 7.0 | 17.0 | 0.00 | 0.00 | 0.00 | 41 | 1010.0 |
| 20260504192526 | 51 | 319 | 8.0 | 17.0 | 0.00 | 0.00 | 0.00 | 42 | 1010.0 |
| 20260504192024 | 51 | 333 | 5.0 | 20.0 | 0.00 | 0.00 | 0.00 | 42 | 1010.0 |
| 20260504191523 | 52 | 332 | 7.0 | 20.0 | 0.00 | 0.00 | 0.00 | 41 | 1010.0 |
| 20260504191024 | 53 | 321 | 8.0 | 17.0 | 0.00 | 0.00 | 0.00 | 40 | 1009.9 |
| 20260504190523 | 52 | 328 | 7.0 | 17.0 | 0.00 | 0.00 | 0.00 | 42 | 1010.0 |
| 20260504190023 | 52 | 232 | 6.0 | 18.0 | 0.00 | 0.00 | 0.00 | 41 | 1010.0 |
| 20260504185522 | 51 | 316 | 9.0 | 18.0 | 0.00 | 0.00 | 0.00 | 44 | 1010.0 |
| 20260504185022 | 50 | 269 | 6.0 | 15.0 | 0.00 | 0.00 | 0.00 | 45 | 1010.1 |
| 20260504184522 | 50 | 18 | 5.0 | 17.0 | 0.00 | 0.00 | 0.00 | 44 | 1009.9 |
| 20260504184024 | 49 | 360 | 6.0 | 20.0 | 0.00 | 0.00 | 0.00 | 46 | 1009.9 |
| 20260504183623 | 49 | 346 | 6.0 | 16.0 | 0.00 | 0.00 | 0.00 | 44 | 1010.1 |
| 20260504183017 | 49 | 14 | 8.0 | 16.0 | 0.00 | 0.00 | 0.00 | 43 | 1009.9 |
| 20260504182519 | 49 | 322 | 6.0 | 20.0 | 0.00 | 0.00 | 0.00 | 44 | 1009.8 |
| 20260504182016 | 49 | 308 | 10.0 | 20.0 | 0.00 | 0.00 | 0.00 | 43 | 1009.9 |
| 20260504181516 | 49 | 313 | 5.0 | 18.0 | 0.00 | 0.00 | 0.00 | 44 | 1009.9 |
| 20260504181017 | 49 | 327 | 7.0 | 18.0 | 0.00 | 0.00 | 0.00 | 44 | 1009.8 |
| 20260504180516 | 50 | 315 | 8.0 | 25.0 | 0.00 | 0.00 | 0.00 | 43 | 1009.9 |
| 20260504180017 | 51 | 342 | 10.0 | 25.0 | 0.00 | 0.00 | 0.00 | 41 | 1009.9 |
| 20260504175516 | 51 | 281 | 7.0 | 16.0 | 0.00 | 0.00 | 0.00 | 43 | 1009.6 |
| 20260504175016 | 50 | 15 | 7.0 | 18.0 | 0.00 | 0.00 | 0.00 | 44 | 1009.6 |
| 20260504174515 | 50 | 293 | 8.0 | 18.0 | 0.00 | 0.00 | 0.00 | 44 | 1009.8 |
| 20260504174016 | 50 | 320 | 10.0 | 18.0 | 0.00 | 0.00 | 0.00 | 43 | 1009.8 |
| 20260504173516 | 51 | 316 | 7.0 | 16.0 | 0.00 | 0.00 | 0.00 | 43 | 1009.7 |
| 20260504173018 | 51 | 265 | 7.0 | 16.0 | 0.00 | 0.00 | 0.00 | 44 | 1009.7 |
| 20260504172518 | 51 | 305 | 10.0 | 16.0 | 0.00 | 0.00 | 0.00 | 43 | 1009.7 |
| 20260504172020 | 51 | 298 | 9.0 | 20.0 | 0.00 | 0.00 | 0.00 | 43 | 1009.7 |
| 20260504171534 | 51 | 302 | 11.0 | 25.0 | 0.00 | 0.00 | 0.00 | 42 | 1009.6 |
| 20260504171018 | 51 | 306 | 10.0 | 25.0 | 0.00 | 0.00 | 0.00 | 43 | 1009.6 |
| 20260504170518 | 52 | 305 | 10.0 | 19.0 | 0.00 | 0.00 | 0.00 | 41 | 1009.7 |
| 20260504151011 | 50 | 305 | 8.0 | 20.0 | 0.00 | 0.00 | 0.00 | 47 | 1009.1 |
| 20260504150512 | 49 | 310 | 8.0 | 20.0 | 0.00 | 0.00 | 0.00 | 47 | 1009.2 |
| 20260504141009 | 48 | 314 | 3.0 | 10.0 | 0.00 | 0.00 | 0.00 | 54 | 1009.1 |
| 20260504140509 | 47 | 355 | 2.0 | 10.0 | 0.00 | 0.00 | 0.00 | 54 | 1009.3 |
| 20260504130505 | 44 | 347 | 2.0 | 5.0 | 0.00 | 0.00 | 0.00 | 59 | 1009.0 |
| 20260504110548 | 44 | 339 | 0.0 | 4.0 | 0.00 | 0.00 | 0.00 | 53 | 1007.4 |
| 20260504100542 | 46 | 360 | 4.0 | 6.0 | 0.00 | 0.00 | 0.00 | 50 | 1007.0 |
| 20260504081558 | 50 | 312 | 3.0 | 8.0 | 0.00 | 0.00 | 0.00 | 55 | 1006.0 |
| 20260504081053 | 50 | 327 | 0.0 | 4.0 | 0.00 | 0.00 | 0.00 | 53 | 1006.0 |
| 20260504080553 | 50 | 344 | 1.0 | 4.0 | 0.00 | 0.00 | 0.00 | 51 | 1005.7 |
| 20260504070154 | 53 | 13 | 7.0 | 14.0 | 0.00 | 0.00 | 0.00 | 44 | 1004.8 |
| 20260504060141 | 51 | 16 | 2.0 | 3.0 | 0.00 | 0.00 | 0.00 | 50 | 1003.7 |
| 20260504050543 | 53 | 13 | 2.0 | 4.0 | 0.00 | 0.00 | 0.00 | 46 | 1003.1 |
| 20260504050144 | 53 | 13 | 3.0 | 4.0 | 0.00 | 0.00 | 0.00 | 44 | 1003.2 |
| 20260504045541 | 54 | 12 | 3.0 | 4.0 | 0.00 | 0.00 | 0.00 | 44 | 1003.2 |
| 20260504045039 | 55 | 5 | 2.0 | 4.0 | 0.00 | 0.00 | 0.00 | 43 | 1003.2 |
| 20260504044542 | 55 | 5 | 3.0 | 4.0 | 0.00 | 0.00 | 0.00 | 43 | 1003.2 |
| 20260504044039 | 56 | 5 | 3.0 | 4.0 | 0.00 | 0.00 | 0.00 | 42 | 1003.2 |
| 20260504043539 | 57 | 5 | 3.0 | 4.0 | 0.00 | 0.00 | 0.00 | 41 | 1003.1 |
| 20260504043040 | 58 | 5 | 2.0 | 8.0 | 0.00 | 0.00 | 0.00 | 40 | 1003.0 |
| 20260504042539 | 58 | 5 | 3.0 | 9.0 | 0.00 | 0.00 | 0.00 | 39 | 1003.0 |
| 20260504042043 | 59 | 355 | 4.0 | 10.0 | 0.00 | 0.00 | 0.00 | 39 | 1002.9 |
| 20260504041539 | 60 | 11 | 6.0 | 12.0 | 0.00 | 0.00 | 0.00 | 38 | 1002.9 |
| 20260504041041 | 60 | 17 | 6.0 | 14.0 | 0.00 | 0.00 | 0.00 | 38 | 1002.6 |
| 20260504040539 | 61 | 34 | 7.0 | 18.0 | 0.00 | 0.00 | 0.00 | 37 | 1002.5 |
| 20260504040140 | 62 | 26 | 9.0 | 18.0 | 0.00 | 0.00 | 0.00 | 36 | 1002.4 |
| 20260504035541 | 63 | 22 | 10.0 | 18.0 | 0.00 | 0.00 | 0.00 | 35 | 1002.2 |
| 20260504035042 | 64 | 5 | 12.0 | 22.0 | 0.00 | 0.00 | 0.00 | 34 | 1002.1 |
| 20260504034542 | 66 | 360 | 5.0 | 15.0 | 0.00 | 0.00 | 0.00 | 34 | 1001.9 |
| 20260504034039 | 66 | 319 | 6.0 | 10.0 | 0.00 | 0.00 | 0.00 | 34 | 1001.5 |
| 20260504033539 | 66 | 327 | 5.0 | 11.0 | 0.00 | 0.00 | 0.00 | 34 | 1001.2 |
| 20260504033041 | 66 | 317 | 4.0 | 11.0 | 0.00 | 0.00 | 0.00 | 34 | 1001.3 |
| 20260504032539 | 66 | 311 | 5.0 | 9.0 | 0.00 | 0.00 | 0.00 | 35 | 1001.3 |
| 20260504032039 | 65 | 315 | 3.0 | 9.0 | 0.00 | 0.00 | 0.00 | 35 | 1001.2 |
| 20260504031539 | 66 | 298 | 3.0 | 10.0 | 0.00 | 0.00 | 0.00 | 35 | 1001.2 |
| 20260504031038 | 66 | 302 | 3.0 | 10.0 | 0.00 | 0.00 | 0.00 | 35 | 1001.0 |
| 20260504030540 | 65 | 281 | 4.0 | 8.0 | 0.00 | 0.00 | 0.00 | 35 | 1001.1 |
| 20260504025540 | 65 | 308 | 3.0 | 9.0 | 0.00 | 0.00 | 0.00 | 34 | 1001.1 |
| 20260504025040 | 66 | 306 | 2.0 | 9.0 | 0.00 | 0.00 | 0.00 | 33 | 1001.2 |
| 20260504024539 | 66 | 316 | 1.0 | 6.0 | 0.00 | 0.00 | 0.00 | 32 | 1001.0 |
| 20260504024039 | 67 | 310 | 2.0 | 9.0 | 0.00 | 0.00 | 0.00 | 31 | 1001.1 |
| 20260504023538 | 68 | 285 | 3.0 | 9.0 | 0.00 | 0.00 | 0.00 | 30 | 1001.0 |
| 20260504023039 | 68 | 299 | 4.0 | 10.0 | 0.00 | 0.00 | 0.00 | 29 | 1001.0 |
| 20260504022538 | 68 | 289 | 5.0 | 13.0 | 0.00 | 0.00 | 0.00 | 29 | 1000.9 |
| 20260504022039 | 68 | 333 | 5.0 | 13.0 | 0.00 | 0.00 | 0.00 | 28 | 1001.1 |
| 20260504021537 | 69 | 310 | 3.0 | 10.0 | 0.00 | 0.00 | 0.00 | 27 | 1000.9 |
| 20260504021038 | 70 | 348 | 4.0 | 17.0 | 0.00 | 0.00 | 0.00 | 26 | 1000.8 |
| 20260504020539 | 70 | 302 | 8.0 | 19.0 | 0.00 | 0.00 | 0.00 | 26 | 1000.6 |
| 20260504015535 | 70 | 286 | 6.0 | 13.0 | 0.00 | 0.00 | 0.00 | 25 | 1000.6 |
| 20260504015036 | 71 | 277 | 5.0 | 14.0 | 0.00 | 0.00 | 0.00 | 25 | 1000.6 |
| 20260504014541 | 71 | 249 | 6.0 | 14.0 | 0.00 | 0.00 | 0.00 | 24 | 1000.6 |
| 20260504014035 | 71 | 299 | 7.0 | 13.0 | 0.00 | 0.00 | 0.00 | 24 | 1000.8 |
| 20260504013533 | 71 | 279 | 7.0 | 16.0 | 0.00 | 0.00 | 0.00 | 24 | 1000.8 |
| 20260504013034 | 71 | 279 | 7.0 | 16.0 | 0.00 | 0.00 | 0.00 | 25 | 1000.8 |
| 20260504012532 | 71 | 284 | 5.0 | 12.0 | 0.00 | 0.00 | 0.00 | 27 | 1000.9 |
| 20260504012032 | 71 | 296 | 5.0 | 12.0 | 0.00 | 0.00 | 0.00 | 28 | 1001.0 |
| 20260504011531 | 72 | 273 | 4.0 | 13.0 | 0.00 | 0.00 | 0.00 | 28 | 1000.9 |
| 20260504011030 | 72 | 267 | 8.0 | 13.0 | 0.00 | 0.00 | 0.00 | 28 | 1001.1 |
| 20260504010530 | 72 | 268 | 5.0 | 13.0 | 0.00 | 0.00 | 0.00 | 28 | 1001.1 |
| 20260504010132 | 73 | 265 | 4.0 | 19.0 | 0.00 | 0.00 | 0.00 | 27 | 1001.1 |
| 20260504005529 | 73 | 270 | 6.0 | 19.0 | 0.00 | 0.00 | 0.00 | 27 | 1001.1 |
| 20260504005028 | 73 | 248 | 8.0 | 11.0 | 0.00 | 0.00 | 0.00 | 27 | 1001.2 |
| 20260504004528 | 74 | 256 | 7.0 | 16.0 | 0.00 | 0.00 | 0.00 | 27 | 1001.2 |
| 20260504004027 | 74 | 240 | 7.0 | 16.0 | 0.00 | 0.00 | 0.00 | 27 | 1001.3 |
| 20260504003527 | 73 | 262 | 7.0 | 18.0 | 0.00 | 0.00 | 0.00 | 26 | 1001.3 |
| 20260504003027 | 74 | 230 | 9.0 | 21.0 | 0.00 | 0.00 | 0.00 | 26 | 1001.3 |
| 20260504002527 | 74 | 278 | 11.0 | 21.0 | 0.00 | 0.00 | 0.00 | 26 | 1001.4 |
| 20260504002026 | 75 | 263 | 7.0 | 17.0 | 0.00 | 0.00 | 0.00 | 26 | 1001.5 |
| 20260504001526 | 75 | 296 | 7.0 | 17.0 | 0.00 | 0.00 | 0.00 | 25 | 1001.6 |
| 20260504001026 | 75 | 269 | 10.0 | 15.0 | 0.00 | 0.00 | 0.00 | 24 | 1001.7 |
| 20260504000524 | 75 | 281 | 7.0 | 14.0 | 0.00 | 0.00 | 0.00 | 24 | 1001.7 |
| 20260504000127 | 75 | 259 | 9.0 | 19.0 | 0.00 | 0.00 | 0.00 | 23 | 1001.8 |
| 20260503235525 | 75 | 256 | 10.0 | 19.0 | 0.00 | 0.00 | 0.00 | 23 | 1001.7 |
| 20260503235025 | 75 | 311 | 8.0 | 19.0 | 0.00 | 0.00 | 0.00 | 22 | 1001.9 |